QPF
0.00 0.01 0.01 0.01 0.01 0.02 0.02 0.01 0.01 0.01 0.01 0.01 0.01 0.00 0.01 0.01 0.02 0.04 0.06 0.07 0.07 0.10 0.11 0.12 0.11 0.09 0.10 0.10 0.08 0.08 0.08 0.10 0.10 0.11 0.13 0.17 0.17 0.18 0.20 0.22 0.23 0.31 0.39 0.40 0.38 0.38 0.38 0.35 0.28
0.00 0.00 0.00 0.01 0.01 0.01 0.01 0.01 0.01 0.01 0.00 0.00 0.00 0.00 0.00 0.01 0.01 0.02 0.04 0.05 0.05 0.08 0.12 0.12 0.11 0.10 0.09 0.09 0.09 0.08 0.07 0.09 0.10 0.11 0.13 0.17 0.17 0.18 0.21 0.27 0.26 0.38 0.40 0.41 0.32 0.36 0.44 0.35 0.27
0.00 0.00 0.00 0.01 0.01 0.01 0.01 0.01 0.02 0.01 0.00 0.00 0.00 0.00 0.00 0.01 0.01 0.02 0.04 0.04 0.04 0.05 0.08 0.11 0.12 0.12 0.09 0.10 0.15 0.14 0.10 0.08 0.11 0.12 0.14 0.20 0.21 0.20 0.22 0.23 0.22 0.28 0.32 0.33 0.31 0.36 0.42 0.31 0.24
0.00 0.00 0.01 0.02 0.02 0.01 0.01 0.01 0.01 0.00 0.00 0.00 0.00 0.00 0.01 0.02 0.02 0.02 0.03 0.03 0.03 0.03 0.05 0.08 0.13 0.09 0.06 0.09 0.17 0.19 0.16 0.11 0.10 0.12 0.17 0.21 0.21 0.21 0.20 0.17 0.18 0.20 0.25 0.29 0.31 0.34 0.34 0.26 0.20
0.00 0.01 0.01 0.02 0.02 0.02 0.02 0.02 0.02 0.01 0.00 0.00 0.00 0.01 0.01 0.03 0.02 0.02 0.02 0.02 0.01 0.02 0.04 0.09 0.10 0.06 0.06 0.08 0.14 0.18 0.17 0.15 0.12 0.11 0.14 0.20 0.22 0.20 0.17 0.15 0.17 0.18 0.20 0.24 0.28 0.32 0.32 0.26 0.22
0.00 0.01 0.02 0.02 0.03 0.03 0.03 0.01 0.01 0.01 0.00 0.00 0.00 0.01 0.02 0.02 0.01 0.01 0.01 0.01 0.01 0.03 0.04 0.06 0.08 0.06 0.06 0.07 0.12 0.17 0.15 0.12 0.11 0.10 0.14 0.19 0.21 0.22 0.19 0.18 0.17 0.18 0.17 0.18 0.19 0.22 0.23 0.22 0.24
0.00 0.01 0.01 0.02 0.02 0.03 0.03 0.02 0.01 0.01 0.01 0.01 0.00 0.01 0.02 0.02 0.01 0.01 0.00 0.01 0.01 0.02 0.03 0.05 0.08 0.07 0.07 0.07 0.07 0.11 0.13 0.13 0.12 0.13 0.16 0.18 0.20 0.23 0.22 0.18 0.16 0.14 0.12 0.11 0.10 0.10 0.10 0.11 0.14
0.00 0.00 0.01 0.01 0.02 0.02 0.01 0.01 0.01 0.01 0.02 0.01 0.00 0.00 0.02 0.02 0.01 0.01 0.01 0.01 0.02 0.02 0.02 0.04 0.07 0.05 0.05 0.07 0.08 0.07 0.09 0.13 0.14 0.15 0.17 0.18 0.24 0.26 0.18 0.13 0.11 0.09 0.08 0.07 0.07 0.07 0.09 0.09 0.08
0.00 0.00 0.00 0.01 0.02 0.02 0.01 0.00 0.00 0.01 0.01 0.01 0.00 0.00 0.01 0.01 0.02 0.02 0.02 0.02 0.03 0.03 0.03 0.04 0.04 0.03 0.03 0.04 0.05 0.08 0.08 0.09 0.12 0.14 0.13 0.16 0.19 0.16 0.14 0.13 0.10 0.09 0.08 0.08 0.08 0.07 0.07 0.07 0.06
0.00 0.00 0.00 0.01 0.02 0.02 0.01 0.00 0.00 0.00 0.00 0.00 0.00 0.01 0.01 0.01 0.03 0.04 0.04 0.04 0.04 0.03 0.04 0.04 0.03 0.03 0.03 0.03 0.05 0.07 0.06 0.06 0.08 0.11 0.10 0.10 0.11 0.10 0.08 0.11 0.12 0.11 0.09 0.08 0.06 0.06 0.06 0.05 0.04
0.00 0.00 0.00 0.00 0.00 0.00 0.00 0.01 0.01 0.00 0.00 0.01 0.01 0.01 0.01 0.01 0.03 0.06 0.06 0.04 0.03 0.03 0.02 0.02 0.01 0.02 0.04 0.06 0.05 0.05 0.06 0.06 0.06 0.06 0.08 0.09 0.09 0.08 0.07 0.08 0.09 0.08 0.06 0.07 0.06 0.05 0.03 0.03 0.03
0.00 0.00 0.00 0.00 0.00 0.00 0.00 0.00 0.00 0.00 0.01 0.00 0.01 0.01 0.01 0.01 0.02 0.03 0.04 0.03 0.02 0.02 0.02 0.02 0.02 0.03 0.05 0.06 0.04 0.03 0.03 0.04 0.03 0.03 0.04 0.06 0.07 0.08 0.09 0.08 0.06 0.05 0.06 0.08 0.07 0.05 0.03 0.04 0.04
0.00 0.00 0.00 0.00 0.00 0.00 0.00 0.00 0.00 0.01 0.00 0.00 0.01 0.01 0.01 0.00 0.01 0.01 0.01 0.01 0.02 0.02 0.03 0.03 0.03 0.04 0.06 0.05 0.05 0.04 0.05 0.05 0.04 0.05 0.05 0.05 0.05 0.06 0.07 0.07 0.06 0.05 0.06 0.06 0.05 0.06 0.07 0.07 0.06
0.00 0.00 0.00 0.00 0.00 0.00 0.00 0.00 0.01 0.01 0.01 0.01 0.01 0.01 0.00 0.00 0.00 0.01 0.01 0.01 0.01 0.01 0.01 0.03 0.03 0.04 0.04 0.04 0.04 0.04 0.04 0.06 0.06 0.06 0.06 0.05 0.04 0.05 0.06 0.07 0.07 0.05 0.05 0.05 0.05 0.05 0.06 0.07 0.06
0.00 0.00 0.00 0.00 0.00 0.00 0.00 0.01 0.01 0.01 0.00 0.00 0.00 0.00 0.00 0.00 0.00 0.00 0.01 0.01 0.01 0.01 0.01 0.02 0.02 0.03 0.03 0.03 0.03 0.02 0.02 0.03 0.03 0.04 0.04 0.04 0.04 0.05 0.06 0.05 0.06 0.06 0.04 0.04 0.06 0.07 0.07 0.07 0.06
0.00 0.00 0.00 0.00 0.00 0.00 0.00 0.01 0.01 0.01 0.00 0.00 0.00 0.00 0.00 0.00 0.00 0.01 0.01 0.01 0.01 0.01 0.01 0.01 0.01 0.02 0.03 0.03 0.03 0.02 0.03 0.02 0.02 0.02 0.02 0.02 0.03 0.04 0.05 0.04 0.04 0.05 0.05 0.05 0.07 0.09 0.08 0.08 0.06
0.00 0.00 0.00 0.00 0.00 0.00 0.00 0.01 0.01 0.00 0.00 0.00 0.00 0.00 0.00 0.00 0.00 0.00 0.01 0.01 0.01 0.02 0.01 0.00 0.00 0.01 0.02 0.02 0.02 0.02 0.03 0.03 0.02 0.02 0.03 0.03 0.03 0.05 0.05 0.07 0.08 0.08 0.07 0.07 0.07 0.07 0.07 0.08 0.08
0.00 0.00 0.00 0.00 0.00 0.00 0.00 0.01 0.01 0.00 0.00 0.00 0.00 0.00 0.00 0.00 0.00 0.00 0.00 0.01 0.01 0.01 0.01 0.01 0.01 0.01 0.01 0.01 0.02 0.02 0.03 0.03 0.02 0.02 0.03 0.04 0.04 0.05 0.06 0.06 0.07 0.07 0.09 0.09 0.08 0.08 0.09 0.08 0.09
0.00 0.00 0.00 0.00 0.00 0.00 0.00 0.01 0.01 0.01 0.00 0.00 0.00 0.00 0.00 0.00 0.00 0.01 0.01 0.00 0.01 0.01 0.01 0.01 0.01 0.00 0.01 0.01 0.01 0.02 0.02 0.03 0.02 0.02 0.03 0.06 0.10 0.09 0.07 0.06 0.06 0.06 0.07 0.08 0.08 0.08 0.08 0.08 0.08
0.00 0.00 0.01 0.00 0.00 0.00 0.01 0.01 0.01 0.01 0.00 0.00 0.00 0.01 0.01 0.00 0.00 0.01 0.01 0.00 0.01 0.01 0.01 0.01 0.01 0.01 0.01 0.01 0.01 0.02 0.02 0.03 0.03 0.02 0.04 0.08 0.11 0.10 0.08 0.06 0.06 0.06 0.06 0.07 0.09 0.10 0.09 0.09 0.09
0.01 0.00 0.00 0.00 0.00 0.00 0.00 0.01 0.01 0.01 0.00 0.00 0.00 0.00 0.01 0.00 0.00 0.00 0.00 0.00 0.00 0.00 0.00 0.00 0.00 0.01 0.02 0.02 0.02 0.03 0.04 0.05 0.05 0.05 0.05 0.07 0.07 0.06 0.05 0.04 0.04 0.05 0.05 0.07 0.11 0.10 0.06 0.07 0.07
0.01 0.01 0.01 0.01 0.01 0.01 0.00 0.01 0.01 0.01 0.00 0.00 0.00 0.00 0.00 0.00 0.00 0.00 0.00 0.00 0.00 0.00 0.00 0.00 0.00 0.01 0.02 0.02 0.04 0.06 0.06 0.06 0.06 0.05 0.05 0.07 0.06 0.04 0.03 0.04 0.04 0.05 0.05 0.07 0.07 0.06 0.05 0.05 0.05
0.01 0.01 0.01 0.01 0.00 0.01 0.00 0.01 0.01 0.01 0.00 0.00 0.00 0.00 0.00 0.00 0.00 0.00 0.00 0.00 0.00 0.00 0.00 0.00 0.00 0.01 0.02 0.04 0.05 0.05 0.04 0.04 0.03 0.03 0.03 0.03 0.03 0.02 0.02 0.03 0.03 0.04 0.04 0.06 0.07 0.07 0.06 0.04 0.04
0.01 0.01 0.01 0.01 0.01 0.01 0.01 0.01 0.01 0.00 0.00 0.01 0.00 0.00 0.00 0.00 0.00 0.00 0.00 0.00 0.00 0.00 0.00 0.00 0.01 0.01 0.03 0.04 0.04 0.03 0.02 0.02 0.02 0.02 0.02 0.02 0.01 0.02 0.02 0.02 0.03 0.03 0.04 0.05 0.07 0.07 0.06 0.05 0.04
0.01 0.02 0.02 0.02 0.02 0.01 0.01 0.01 0.01 0.00 0.00 0.00 0.00 0.00 0.00 0.00 0.00 0.00 0.00 0.00 0.00 0.00 0.00 0.00 0.01 0.01 0.02 0.02 0.01 0.01 0.02 0.02 0.03 0.02 0.02 0.02 0.02 0.02 0.03 0.03 0.03 0.03 0.04 0.05 0.07 0.07 0.06 0.05 0.04
0.01 0.01 0.01 0.01 0.01 0.01 0.01 0.01 0.01 0.00 0.00 0.00 0.00 0.00 0.01 0.01 0.01 0.01 0.00 0.00 0.00 0.00 0.01 0.01 0.01 0.01 0.01 0.02 0.04 0.04 0.03 0.02 0.03 0.03 0.03 0.03 0.03 0.04 0.04 0.04 0.04 0.04 0.04 0.04 0.05 0.05 0.04 0.04 0.03
0.01 0.01 0.01 0.01 0.01 0.01 0.01 0.00 0.00 0.00 0.00 0.00 0.00 0.01 0.01 0.01 0.01 0.01 0.00 0.01 0.01 0.01 0.01 0.02 0.02 0.02 0.01 0.02 0.03 0.03 0.02 0.01 0.01 0.02 0.02 0.02 0.02 0.03 0.04 0.04 0.04 0.04 0.04 0.04 0.04 0.03 0.03 0.03 0.03
0.01 0.01 0.01 0.01 0.01 0.01 0.01 0.00 0.00 0.00 0.00 0.00 0.00 0.01 0.01 0.01 0.01 0.01 0.00 0.00 0.00 0.01 0.01 0.01 0.01 0.02 0.02 0.01 0.02 0.03 0.02 0.02 0.01 0.01 0.01 0.02 0.02 0.03 0.04 0.04 0.04 0.04 0.03 0.03 0.03 0.02 0.03 0.03 0.02
0.00 0.01 0.01 0.01 0.00 0.01 0.00 0.00 0.00 0.00 0.01 0.00 0.00 0.01 0.01 0.01 0.01 0.00 0.00 0.00 0.00 0.01 0.01 0.01 0.01 0.01 0.01 0.01 0.02 0.02 0.02 0.01 0.02 0.01 0.02 0.02 0.02 0.03 0.04 0.04 0.04 0.04 0.04 0.03 0.03 0.03 0.03 0.02 0.02
0.00 0.00 0.00 0.00 0.00 0.00 0.00 0.00 0.00 0.01 0.01 0.01 0.00 0.00 0.01 0.01 0.01 0.01 0.01 0.01 0.01 0.01 0.01 0.01 0.01 0.01 0.01 0.01 0.01 0.01 0.01 0.01 0.02 0.01 0.02 0.02 0.02 0.02 0.03 0.03 0.03 0.03 0.03 0.04 0.04 0.04 0.03 0.04 0.04
MSLP
1006.30 1006.68 1007.22 1007.86 1008.54 1009.16 1009.66 1010.01 1010.18 1010.22 1010.17 1010.10 1010.06 1010.09 1010.17 1010.27 1010.33 1010.27 1010.05 1009.62 1009.01 1008.24 1007.39 1006.51 1005.67 1004.90 1004.21 1003.62 1003.12 1002.71 1002.39 1002.20 1002.16 1002.29 1002.60 1003.08 1003.69 1004.36 1005.06 1005.72 1006.33 1006.88 1007.41 1007.94 1008.49 1009.08 1009.70 1010.31 1010.87
1006.38 1006.84 1007.43 1008.10 1008.76 1009.36 1009.81 1010.10 1010.20 1010.16 1010.05 1009.91 1009.83 1009.82 1009.89 1010.02 1010.13 1010.17 1010.08 1009.82 1009.39 1008.81 1008.14 1007.42 1006.70 1006.03 1005.43 1004.90 1004.44 1004.07 1003.79 1003.62 1003.58 1003.68 1003.92 1004.28 1004.73 1005.23 1005.75 1006.26 1006.76 1007.25 1007.76 1008.31 1008.91 1009.55 1010.20 1010.82 1011.36
1006.61 1007.14 1007.77 1008.44 1009.08 1009.61 1010.00 1010.21 1010.24 1010.14 1009.96 1009.78 1009.66 1009.62 1009.68 1009.80 1009.95 1010.06 1010.07 1009.96 1009.70 1009.32 1008.84 1008.30 1007.74 1007.21 1006.71 1006.26 1005.86 1005.53 1005.27 1005.11 1005.05 1005.09 1005.24 1005.48 1005.78 1006.12 1006.49 1006.87 1007.28 1007.73 1008.24 1008.82 1009.46 1010.14 1010.81 1011.42 1011.92
1006.96 1007.55 1008.19 1008.84 1009.42 1009.89 1010.20 1010.34 1010.32 1010.17 1009.97 1009.76 1009.62 1009.55 1009.59 1009.70 1009.85 1009.98 1010.06 1010.05 1009.94 1009.72 1009.43 1009.08 1008.71 1008.33 1007.96 1007.61 1007.29 1007.01 1006.79 1006.63 1006.54 1006.53 1006.59 1006.72 1006.89 1007.10 1007.34 1007.62 1007.97 1008.38 1008.89 1009.48 1010.15 1010.84 1011.50 1012.08 1012.53
1007.36 1007.97 1008.60 1009.21 1009.73 1010.13 1010.37 1010.46 1010.41 1010.26 1010.06 1009.86 1009.72 1009.65 1009.66 1009.74 1009.86 1009.98 1010.08 1010.12 1010.10 1010.02 1009.89 1009.72 1009.52 1009.30 1009.08 1008.85 1008.63 1008.42 1008.24 1008.10 1008.00 1007.96 1007.96 1008.00 1008.07 1008.18 1008.33 1008.54 1008.82 1009.20 1009.69 1010.28 1010.93 1011.60 1012.22 1012.73 1013.10
1007.71 1008.31 1008.91 1009.45 1009.90 1010.23 1010.43 1010.50 1010.45 1010.34 1010.19 1010.04 1009.93 1009.87 1009.86 1009.91 1009.98 1010.05 1010.12 1010.17 1010.20 1010.21 1010.20 1010.18 1010.14 1010.08 1010.00 1009.90 1009.79 1009.66 1009.54 1009.43 1009.35 1009.30 1009.27 1009.27 1009.29 1009.33 1009.41 1009.56 1009.79 1010.13 1010.58 1011.12 1011.72 1012.32 1012.86 1013.28 1013.56
1007.95 1008.51 1009.04 1009.50 1009.87 1010.14 1010.31 1010.39 1010.40 1010.36 1010.29 1010.23 1010.19 1010.16 1010.16 1010.16 1010.18 1010.19 1010.21 1010.23 1010.27 1010.32 1010.39 1010.47 1010.56 1010.63 1010.68 1010.70 1010.69 1010.65 1010.60 1010.55 1010.50 1010.47 1010.45 1010.44 1010.43 1010.45 1010.50 1010.60 1010.78 1011.07 1011.45 1011.91 1012.42 1012.92 1013.35 1013.66 1013.83
1008.06 1008.54 1008.97 1009.34 1009.64 1009.86 1010.03 1010.14 1010.22 1010.28 1010.33 1010.38 1010.42 1010.46 1010.47 1010.46 1010.43 1010.39 1010.35 1010.33 1010.35 1010.41 1010.52 1010.67 1010.83 1011.00 1011.14 1011.25 1011.32 1011.35 1011.37 1011.38 1011.39 1011.39 1011.41 1011.42 1011.42 1011.43 1011.47 1011.54 1011.68 1011.90 1012.21 1012.57 1012.97 1013.34 1013.65 1013.85 1013.93
1008.06 1008.43 1008.76 1009.03 1009.26 1009.45 1009.61 1009.77 1009.93 1010.10 1010.28 1010.45 1010.59 1010.70 1010.76 1010.76 1010.71 1010.63 1010.55 1010.49 1010.48 1010.54 1010.66 1010.83 1011.03 1011.24 1011.43 1011.59 1011.71 1011.79 1011.86 1011.92 1011.98 1012.03 1012.09 1012.14 1012.18 1012.21 1012.25 1012.31 1012.41 1012.57 1012.79 1013.06 1013.34 1013.59 1013.79 1013.88 1013.89
1007.99 1008.27 1008.49 1008.67 1008.83 1008.99 1009.16 1009.36 1009.60 1009.87 1010.16 1010.44 1010.69 1010.88 1010.99 1011.03 1010.99 1010.91 1010.81 1010.74 1010.72 1010.76 1010.87 1011.04 1011.24 1011.45 1011.64 1011.80 1011.92 1012.03 1012.12 1012.21 1012.30 1012.41 1012.52 1012.61 1012.70 1012.76 1012.81 1012.86 1012.94 1013.05 1013.20 1013.38 1013.56 1013.72 1013.83 1013.85 1013.80
1007.95 1008.14 1008.27 1008.38 1008.48 1008.61 1008.78 1009.02 1009.31 1009.65 1010.02 1010.39 1010.72 1010.98 1011.16 1011.24 1011.25 1011.20 1011.13 1011.07 1011.05 1011.09 1011.19 1011.34 1011.51 1011.68 1011.83 1011.96 1012.06 1012.15 1012.23 1012.33 1012.45 1012.59 1012.73 1012.87 1013.00 1013.09 1013.17 1013.23 1013.29 1013.37 1013.47 1013.59 1013.71 1013.81 1013.85 1013.83 1013.75
1008.01 1008.12 1008.19 1008.24 1008.31 1008.41 1008.58 1008.81 1009.12 1009.50 1009.91 1010.32 1010.69 1011.01 1011.25 1011.39 1011.46 1011.47 1011.46 1011.44 1011.46 1011.51 1011.61 1011.73 1011.86 1011.98 1012.08 1012.15 1012.19 1012.24 1012.30 1012.38 1012.50 1012.66 1012.83 1013.00 1013.16 1013.29 1013.38 1013.46 1013.52 1013.59 1013.67 1013.76 1013.84 1013.91 1013.93 1013.90 1013.81
1008.20 1008.28 1008.30 1008.32 1008.35 1008.43 1008.58 1008.80 1009.09 1009.45 1009.84 1010.25 1010.63 1010.97 1011.25 1011.45 1011.59 1011.68 1011.74 1011.80 1011.87 1011.96 1012.06 1012.17 1012.27 1012.34 1012.38 1012.39 1012.38 1012.37 1012.39 1012.45 1012.56 1012.71 1012.89 1013.08 1013.25 1013.40 1013.52 1013.60 1013.67 1013.74 1013.82 1013.91 1013.99 1014.05 1014.08 1014.06 1013.99
1008.53 1008.60 1008.61 1008.61 1008.62 1008.67 1008.79 1008.96 1009.21 1009.50 1009.84 1010.19 1010.54 1010.86 1011.15 1011.39 1011.60 1011.77 1011.91 1012.05 1012.19 1012.33 1012.47 1012.58 1012.66 1012.70 1012.70 1012.67 1012.62 1012.58 1012.57 1012.60 1012.69 1012.82 1012.99 1013.17 1013.34 1013.49 1013.61 1013.70 1013.78 1013.85 1013.94 1014.03 1014.13 1014.22 1014.27 1014.28 1014.24
1008.97 1009.03 1009.03 1009.03 1009.03 1009.06 1009.14 1009.26 1009.42 1009.63 1009.87 1010.14 1010.42 1010.69 1010.96 1011.22 1011.47 1011.71 1011.94 1012.16 1012.37 1012.57 1012.74 1012.88 1012.97 1013.01 1013.00 1012.96 1012.90 1012.84 1012.81 1012.83 1012.89 1013.00 1013.15 1013.30 1013.45 1013.57 1013.68 1013.76 1013.83 1013.91 1014.00 1014.11 1014.22 1014.34 1014.42 1014.47 1014.46
1009.44 1009.49 1009.50 1009.50 1009.50 1009.51 1009.55 1009.61 1009.69 1009.80 1009.93 1010.09 1010.27 1010.48 1010.71 1010.96 1011.23 1011.51 1011.80 1012.09 1012.36 1012.62 1012.84 1013.02 1013.14 1013.21 1013.23 1013.21 1013.17 1013.13 1013.10 1013.11 1013.16 1013.24 1013.34 1013.45 1013.56 1013.64 1013.71 1013.77 1013.83 1013.89 1013.98 1014.09 1014.22 1014.35 1014.47 1014.55 1014.58
1009.87 1009.92 1009.93 1009.94 1009.94 1009.95 1009.96 1009.97 1009.98 1009.98 1010.01 1010.05 1010.13 1010.26 1010.43 1010.66 1010.93 1011.23 1011.55 1011.88 1012.20 1012.50 1012.77 1012.99 1013.16 1013.28 1013.35 1013.39 1013.40 1013.40 1013.40 1013.42 1013.45 1013.50 1013.55 1013.61 1013.66 1013.69 1013.71 1013.73 1013.76 1013.80 1013.87 1013.98 1014.10 1014.24 1014.38 1014.48 1014.54
1010.22 1010.25 1010.28 1010.30 1010.32 1010.34 1010.34 1010.31 1010.26 1010.19 1010.11 1010.06 1010.05 1010.10 1010.21 1010.39 1010.64 1010.94 1011.27 1011.62 1011.96 1012.29 1012.59 1012.85 1013.07 1013.25 1013.39 1013.50 1013.58 1013.64 1013.68 1013.71 1013.74 1013.76 1013.77 1013.77 1013.75 1013.72 1013.69 1013.66 1013.65 1013.66 1013.71 1013.79 1013.90 1014.03 1014.16 1014.28 1014.37
1010.45 1010.48 1010.51 1010.57 1010.63 1010.67 1010.69 1010.65 1010.57 1010.44 1010.29 1010.16 1010.07 1010.05 1010.11 1010.25 1010.48 1010.76 1011.08 1011.42 1011.76 1012.09 1012.40 1012.69 1012.95 1013.18 1013.39 1013.58 1013.73 1013.85 1013.95 1014.00 1014.03 1014.02 1013.99 1013.93 1013.85 1013.77 1013.68 1013.61 1013.56 1013.54 1013.55 1013.61 1013.69 1013.80 1013.92 1014.04 1014.15
1010.57 1010.60 1010.68 1010.78 1010.90 1011.00 1011.05 1011.03 1010.93 1010.77 1010.58 1010.39 1010.25 1010.18 1010.20 1010.31 1010.50 1010.76 1011.06 1011.38 1011.70 1012.01 1012.31 1012.60 1012.88 1013.16 1013.42 1013.67 1013.89 1014.08 1014.22 1014.30 1014.33 1014.31 1014.24 1014.14 1014.02 1013.88 1013.76 1013.65 1013.57 1013.53 1013.52 1013.54 1013.59 1013.66 1013.76 1013.86 1013.98
1010.62 1010.68 1010.82 1011.00 1011.19 1011.36 1011.46 1011.47 1011.38 1011.21 1010.99 1010.77 1010.60 1010.50 1010.49 1010.59 1010.77 1011.01 1011.28 1011.57 1011.86 1012.14 1012.41 1012.68 1012.96 1013.25 1013.54 1013.83 1014.10 1014.34 1014.52 1014.63 1014.68 1014.65 1014.57 1014.44 1014.29 1014.13 1013.98 1013.86 1013.77 1013.71 1013.68 1013.68 1013.70 1013.74 1013.79 1013.87 1013.98
1010.65 1010.78 1010.99 1011.27 1011.55 1011.80 1011.95 1012.00 1011.92 1011.75 1011.52 1011.28 1011.09 1010.99 1010.98 1011.08 1011.26 1011.50 1011.76 1012.03 1012.28 1012.51 1012.74 1012.97 1013.22 1013.49 1013.78 1014.09 1014.39 1014.66 1014.88 1015.02 1015.08 1015.07 1014.98 1014.86 1014.70 1014.54 1014.40 1014.28 1014.19 1014.13 1014.09 1014.07 1014.06 1014.07 1014.09 1014.13 1014.20
1010.72 1010.93 1011.25 1011.62 1011.99 1012.31 1012.52 1012.59 1012.52 1012.34 1012.10 1011.86 1011.67 1011.58 1011.59 1011.71 1011.91 1012.17 1012.44 1012.69 1012.91 1013.10 1013.28 1013.45 1013.65 1013.88 1014.15 1014.45 1014.75 1015.04 1015.28 1015.46 1015.55 1015.56 1015.50 1015.39 1015.25 1015.11 1014.98 1014.88 1014.81 1014.76 1014.72 1014.70 1014.67 1014.64 1014.62 1014.62 1014.65
1010.88 1011.18 1011.59 1012.05 1012.50 1012.87 1013.11 1013.19 1013.12 1012.93 1012.68 1012.44 1012.26 1012.19 1012.24 1012.40 1012.65 1012.94 1013.23 1013.49 1013.69 1013.85 1013.97 1014.08 1014.21 1014.38 1014.60 1014.87 1015.16 1015.45 1015.71 1015.91 1016.04 1016.08 1016.06 1015.98 1015.88 1015.77 1015.68 1015.61 1015.56 1015.53 1015.50 1015.47 1015.43 1015.38 1015.32 1015.28 1015.27
1011.15 1011.53 1012.01 1012.54 1013.04 1013.43 1013.67 1013.74 1013.65 1013.44 1013.18 1012.94 1012.78 1012.74 1012.84 1013.07 1013.37 1013.72 1014.05 1014.33 1014.53 1014.65 1014.72 1014.77 1014.83 1014.93 1015.09 1015.31 1015.57 1015.85 1016.12 1016.34 1016.51 1016.60 1016.62 1016.59 1016.54 1016.47 1016.41 1016.37 1016.35 1016.33 1016.32 1016.29 1016.24 1016.17 1016.08 1016.01 1015.95
1011.52 1011.96 1012.49 1013.04 1013.54 1013.92 1014.14 1014.17 1014.05 1013.81 1013.54 1013.31 1013.18 1013.19 1013.35 1013.64 1014.02 1014.44 1014.82 1015.12 1015.33 1015.44 1015.47 1015.45 1015.44 1015.47 1015.55 1015.71 1015.94 1016.20 1016.47 1016.71 1016.91 1017.05 1017.13 1017.15 1017.14 1017.12 1017.09 1017.08 1017.08 1017.08 1017.07 1017.05 1017.00 1016.92 1016.82 1016.71 1016.62
1012.00 1012.45 1012.98 1013.51 1013.97 1014.30 1014.46 1014.45 1014.28 1014.03 1013.75 1013.53 1013.44 1013.51 1013.73 1014.10 1014.56 1015.04 1015.47 1015.81 1016.03 1016.13 1016.13 1016.07 1015.99 1015.94 1015.96 1016.06 1016.23 1016.47 1016.73 1016.99 1017.23 1017.41 1017.54 1017.61 1017.65 1017.67 1017.67 1017.69 1017.70 1017.71 1017.72 1017.70 1017.65 1017.57 1017.46 1017.34 1017.23
1012.55 1012.97 1013.44 1013.91 1014.29 1014.54 1014.63 1014.56 1014.36 1014.09 1013.83 1013.64 1013.59 1013.72 1014.01 1014.45 1014.97 1015.50 1015.98 1016.36 1016.60 1016.69 1016.67 1016.57 1016.44 1016.34 1016.29 1016.34 1016.47 1016.67 1016.93 1017.20 1017.45 1017.67 1017.85 1017.97 1018.06 1018.11 1018.15 1018.19 1018.22 1018.24 1018.25 1018.24 1018.20 1018.13 1018.03 1017.90 1017.78
1013.11 1013.47 1013.85 1014.21 1014.50 1014.66 1014.67 1014.55 1014.32 1014.06 1013.82 1013.67 1013.68 1013.86 1014.20 1014.69 1015.25 1015.83 1016.34 1016.73 1016.98 1017.09 1017.06 1016.94 1016.78 1016.64 1016.56 1016.56 1016.66 1016.84 1017.08 1017.35 1017.63 1017.88 1018.10 1018.27 1018.40 1018.50 1018.57 1018.63 1018.68 1018.71 1018.74 1018.73 1018.71 1018.64 1018.55 1018.44 1018.31
1013.66 1013.92 1014.19 1014.43 1014.60 1014.67 1014.62 1014.46 1014.23 1013.98 1013.78 1013.69 1013.74 1013.96 1014.35 1014.85 1015.43 1016.01 1016.53 1016.93 1017.19 1017.30 1017.28 1017.17 1017.02 1016.87 1016.78 1016.76 1016.84 1017.00 1017.24 1017.51 1017.81 1018.09 1018.34 1018.56 1018.74 1018.88 1018.99 1019.08 1019.15 1019.21 1019.25 1019.26 1019.24 1019.19 1019.11 1019.01 1018.89
Thickness
5824 5827 5827 5821 5813 5805 5794 5802 5810 5807 5807 5813 5814 5812 5804 5797 5791 5781 5803 5812 5811 5811 5809 5804 5802 5801 5801 5801 5801 5802 5802 5802 5802 5801 5801 5801 5799 5798 5797 5797 5795 5794 5793 5792 5790 5789 5787 5785 5784
5832 5831 5825 5821 5809 5792 5791 5804 5805 5806 5811 5816 5815 5811 5806 5799 5803 5802 5807 5809 5811 5810 5808 5804 5800 5799 5799 5799 5799 5800 5800 5800 5801 5800 5800 5799 5797 5796 5795 5794 5793 5792 5793 5790 5789 5787 5785 5784 5782
5834 5832 5825 5821 5806 5795 5793 5806 5807 5812 5817 5815 5809 5810 5804 5797 5802 5804 5809 5811 5811 5809 5807 5802 5799 5798 5798 5798 5797 5798 5799 5799 5799 5798 5798 5797 5795 5794 5793 5792 5791 5791 5791 5789 5787 5785 5784 5782 5780
5834 5830 5828 5816 5801 5807 5809 5812 5815 5813 5814 5816 5812 5803 5803 5806 5808 5810 5812 5812 5809 5808 5806 5802 5798 5797 5797 5796 5796 5797 5797 5798 5797 5796 5796 5795 5793 5792 5791 5790 5789 5789 5788 5786 5785 5783 5781 5780 5778
5836 5830 5819 5807 5804 5813 5820 5821 5820 5813 5810 5812 5811 5800 5796 5806 5812 5813 5812 5811 5809 5808 5806 5802 5797 5796 5795 5795 5795 5795 5796 5795 5795 5795 5794 5793 5792 5790 5789 5788 5787 5786 5785 5783 5782 5781 5779 5777 5776
5832 5830 5812 5800 5803 5813 5821 5824 5821 5815 5811 5812 5810 5802 5796 5807 5809 5811 5812 5811 5810 5808 5807 5802 5797 5795 5794 5793 5793 5793 5794 5794 5793 5793 5793 5792 5791 5790 5788 5786 5785 5784 5783 5781 5780 5778 5777 5775 5774
5827 5824 5810 5809 5806 5810 5818 5827 5821 5815 5810 5812 5815 5802 5799 5805 5810 5812 5811 5810 5810 5809 5807 5805 5802 5797 5794 5793 5792 5792 5792 5792 5792 5791 5791 5791 5790 5788 5786 5784 5783 5782 5781 5780 5778 5776 5775 5773 5773
5838 5829 5816 5814 5810 5809 5823 5827 5825 5821 5814 5821 5820 5804 5798 5804 5811 5812 5810 5809 5808 5808 5807 5804 5803 5801 5799 5796 5792 5791 5791 5790 5790 5790 5790 5790 5789 5787 5785 5783 5781 5780 5779 5778 5777 5775 5774 5772 5771
5842 5826 5812 5814 5814 5815 5826 5823 5825 5830 5822 5819 5821 5817 5813 5813 5812 5809 5807 5805 5804 5804 5805 5805 5803 5801 5800 5799 5794 5793 5791 5790 5790 5789 5789 5789 5790 5789 5786 5782 5780 5779 5778 5777 5776 5774 5773 5772 5771
5837 5819 5816 5825 5828 5825 5826 5825 5825 5823 5816 5812 5813 5814 5816 5813 5810 5807 5804 5802 5801 5801 5804 5805 5803 5801 5800 5799 5796 5795 5794 5792 5790 5789 5789 5789 5787 5786 5785 5780 5779 5778 5777 5776 5775 5775 5774 5775 5774
5834 5822 5827 5832 5836 5834 5829 5828 5831 5822 5812 5814 5811 5810 5812 5810 5808 5807 5805 5805 5802 5803 5803 5804 5803 5801 5801 5798 5798 5796 5795 5793 5792 5789 5788 5787 5787 5786 5785 5783 5781 5780 5779 5779 5777 5778 5778 5777 5775
5831 5832 5834 5835 5838 5836 5832 5830 5827 5824 5821 5828 5824 5818 5813 5810 5809 5808 5806 5805 5804 5802 5802 5804 5803 5800 5798 5798 5798 5797 5796 5794 5793 5790 5789 5788 5786 5785 5784 5783 5783 5782 5781 5779 5779 5777 5777 5776 5776
5830 5831 5837 5840 5840 5838 5836 5830 5826 5823 5828 5830 5825 5818 5814 5812 5811 5811 5810 5808 5805 5801 5802 5802 5801 5798 5797 5795 5796 5797 5795 5795 5792 5789 5787 5787 5786 5784 5784 5782 5781 5782 5781 5780 5778 5777 5776 5776 5776
5834 5835 5837 5839 5838 5837 5831 5829 5826 5822 5829 5825 5820 5816 5816 5814 5813 5810 5808 5805 5804 5803 5802 5802 5801 5799 5797 5795 5793 5794 5794 5791 5791 5790 5788 5786 5785 5783 5783 5781 5780 5781 5780 5779 5778 5776 5775 5775 5775
5839 5831 5833 5836 5837 5837 5833 5819 5821 5827 5828 5821 5819 5817 5815 5815 5814 5811 5810 5807 5807 5804 5803 5802 5801 5800 5797 5796 5795 5796 5795 5794 5792 5789 5787 5785 5785 5783 5782 5782 5781 5780 5779 5778 5777 5776 5776 5774 5774
5835 5828 5821 5830 5835 5836 5828 5810 5823 5831 5827 5820 5819 5817 5815 5814 5815 5814 5813 5810 5810 5807 5803 5802 5804 5801 5798 5796 5795 5796 5795 5793 5791 5790 5787 5784 5783 5782 5781 5782 5781 5779 5779 5778 5777 5776 5775 5773 5773
5825 5819 5817 5824 5835 5835 5828 5816 5824 5832 5828 5821 5819 5819 5816 5814 5814 5815 5815 5813 5811 5807 5804 5802 5802 5800 5799 5797 5795 5795 5792 5792 5792 5790 5788 5785 5783 5783 5782 5781 5780 5780 5780 5779 5778 5777 5775 5772 5771
5815 5818 5818 5819 5830 5831 5824 5821 5826 5831 5829 5824 5822 5820 5818 5815 5815 5817 5816 5815 5812 5809 5805 5802 5800 5799 5798 5798 5795 5794 5792 5792 5791 5790 5786 5784 5784 5782 5782 5782 5780 5781 5779 5777 5776 5774 5773 5772 5772
5824 5819 5817 5822 5833 5828 5822 5821 5825 5829 5827 5824 5823 5821 5819 5818 5821 5820 5818 5816 5812 5809 5805 5803 5800 5799 5797 5796 5794 5792 5791 5790 5790 5789 5786 5785 5784 5783 5782 5783 5780 5780 5779 5777 5777 5775 5773 5772 5772
5822 5817 5818 5823 5831 5826 5821 5821 5829 5829 5826 5826 5824 5822 5821 5820 5820 5818 5817 5816 5813 5809 5806 5804 5801 5800 5798 5797 5795 5793 5792 5791 5790 5789 5786 5784 5783 5782 5784 5781 5782 5781 5778 5776 5776 5774 5774 5774 5773
5818 5817 5817 5817 5824 5829 5821 5816 5822 5828 5830 5829 5828 5828 5826 5823 5821 5819 5817 5816 5814 5811 5808 5807 5804 5801 5799 5798 5797 5794 5791 5790 5789 5786 5785 5784 5783 5782 5781 5781 5781 5780 5781 5778 5776 5775 5772 5771 5772
5812 5825 5823 5819 5815 5816 5817 5803 5816 5823 5821 5823 5826 5827 5828 5828 5826 5823 5820 5817 5816 5814 5813 5809 5805 5802 5800 5798 5796 5793 5789 5786 5785 5785 5785 5784 5783 5782 5782 5781 5780 5780 5781 5778 5777 5776 5774 5771 5769
5819 5826 5823 5820 5815 5813 5816 5808 5816 5822 5815 5820 5824 5826 5829 5830 5828 5825 5823 5820 5819 5817 5814 5811 5806 5802 5800 5798 5795 5792 5790 5788 5788 5786 5783 5782 5783 5782 5781 5780 5779 5778 5778 5776 5775 5773 5772 5772 5770
5823 5819 5817 5817 5815 5796 5808 5804 5806 5819 5817 5820 5823 5825 5827 5829 5828 5826 5825 5821 5819 5817 5815 5811 5805 5801 5800 5797 5795 5791 5788 5787 5785 5783 5782 5782 5783 5782 5781 5779 5777 5777 5776 5774 5773 5771 5770 5768 5767
5816 5804 5791 5788 5791 5796 5812 5804 5806 5821 5826 5824 5822 5823 5825 5826 5825 5823 5821 5819 5816 5815 5813 5810 5804 5800 5798 5796 5794 5791 5788 5786 5783 5782 5781 5781 5782 5781 5778 5778 5775 5775 5773 5772 5771 5769 5768 5767 5764
5810 5808 5787 5776 5783 5798 5805 5800 5812 5825 5828 5828 5827 5825 5824 5823 5822 5821 5819 5818 5815 5813 5811 5809 5804 5800 5798 5794 5792 5790 5788 5787 5786 5783 5783 5781 5781 5781 5779 5776 5774 5773 5772 5771 5769 5769 5767 5765 5763
5805 5806 5815 5802 5797 5790 5799 5806 5814 5821 5820 5821 5821 5820 5818 5819 5819 5818 5817 5817 5815 5812 5809 5807 5803 5799 5796 5794 5790 5787 5786 5785 5784 5782 5780 5780 5778 5779 5776 5774 5772 5771 5769 5768 5766 5766 5764 5763 5762
5813 5812 5804 5796 5776 5775 5789 5796 5802 5805 5808 5813 5813 5813 5814 5816 5816 5816 5815 5815 5814 5811 5808 5805 5802 5797 5795 5792 5789 5787 5784 5782 5781 5779 5776 5775 5774 5774 5772 5771 5769 5768 5767 5766 5764 5763 5762 5759 5758
5797 5798 5797 5798 5796 5780 5777 5792 5812 5808 5809 5809 5810 5811 5811 5810 5811 5811 5811 5812 5811 5809 5806 5801 5798 5795 5792 5790 5787 5785 5782 5780 5778 5776 5775 5773 5771 5769 5768 5767 5765 5764 5763 5763 5760 5760 5758 5756 5755
5805 5800 5797 5782 5779 5787 5784 5789 5813 5811 5812 5809 5807 5806 5806 5806 5806 5806 5806 5806 5805 5803 5801 5797 5795 5792 5790 5788 5785 5782 5779 5778 5775 5774 5772 5770 5768 5767 5765 5764 5762 5761 5760 5759 5757 5755 5754 5752 5750